Theta_e
330 330 334 339 335 330 328 323 318 325 329 330 330 332 332 332 333 334 336 336 335 334 333 334 334 333 335 336 335 335 335 334 333
327 328 333 338 337 332 329 327 319 321 328 329 330 333 333 332 330 331 334 334 333 331 331 331 331 331 331 332 333 333 333 334 333
329 331 332 336 338 334 332 330 322 322 327 329 329 333 331 329 327 328 331 332 331 330 329 328 328 328 329 330 330 330 330 330 330
328 330 331 335 337 335 332 331 325 320 323 329 329 331 330 329 328 327 329 331 330 329 328 327 327 326 326 326 326 326 326 327 327
332 332 335 336 336 334 332 331 327 318 323 328 329 329 330 330 328 327 327 330 330 329 327 326 325 323 323 322 323 323 323 323 323
334 333 333 334 335 334 331 330 327 317 323 325 329 329 330 330 328 327 327 330 329 327 325 324 323 322 321 321 320 320 320 320 320
333 333 333 333 333 333 331 330 327 318 320 324 327 329 328 328 328 327 326 329 329 326 324 322 321 321 320 320 319 319 319 319 319
330 329 331 332 331 331 331 330 326 318 319 323 324 327 328 328 328 327 326 327 328 326 323 321 320 320 320 319 318 318 317 318 317
327 326 329 330 330 329 330 330 325 319 322 322 323 327 328 327 327 326 325 324 328 325 322 320 319 320 319 318 317 317 316 316 316
327 325 326 328 328 327 329 329 323 320 327 327 326 325 326 327 326 325 323 322 323 325 323 321 319 319 319 317 316 316 316 315 315
328 327 326 325 325 323 324 324 323 319 327 328 327 325 325 325 324 323 321 320 321 322 323 321 320 319 318 316 315 315 315 314 314
328 328 327 326 326 326 325 326 327 328 328 328 327 325 325 323 322 320 319 319 319 320 322 321 320 319 317 317 314 313 312 312 311
330 329 329 327 327 328 328 327 327 328 328 329 328 327 323 323 322 320 318 317 317 320 321 321 320 319 317 317 315 312 311 310 309
331 331 330 329 327 327 328 328 327 328 328 328 328 327 324 322 322 320 318 316 317 319 320 320 318 318 317 317 316 313 310 309 308
332 332 331 330 330 327 327 327 327 327 327 328 327 326 324 321 319 319 317 316 317 319 320 320 319 316 315 316 315 314 310 308 306
331 331 331 330 330 330 329 330 328 327 326 327 325 324 323 321 318 316 316 315 316 318 320 320 318 316 313 313 314 313 311 308 306
332 332 332 331 330 330 331 332 331 330 328 325 318 317 319 320 320 316 314 314 315 315 318 319 317 315 313 310 310 312 311 309 306
333 332 332 331 330 330 331 332 331 330 328 326 324 313 315 312 316 316 314 312 313 313 314 316 316 314 311 310 308 309 308 307 304
338 337 333 331 331 330 331 331 331 330 328 325 324 322 317 313 314 312 312 312 310 311 311 312 313 311 310 308 306 306 305 302 303
333 334 334 334 333 334 332 331 330 330 329 328 326 323 319 314 312 317 311 309 308 308 309 309 310 310 310 306 303 302 300 299 299
Wind_Speed
9 12 14 15 13 13 13 13 16 18 16 15 13 14 13 12 13 16 16 15 12 11 11 11 12 12 18 16 12 15 18 17 12
10 13 15 15 14 12 12 10 13 16 15 13 13 12 14 13 12 12 12 11 10 10 10 11 10 9 10 12 13 12 15 16 15
13 15 17 16 15 13 10 8 11 14 15 13 11 13 12 11 10 9 9 9 10 10 10 10 10 9 9 9 9 9 9 9 8
13 16 16 17 16 14 11 9 9 13 15 14 12 10 10 9 9 8 9 9 8 8 9 9 9 9 9 10 10 10 11 11 11
16 15 15 16 15 13 12 10 8 11 14 15 12 11 12 9 8 4 5 6 8 8 8 8 8 8 8 9 9 10 11 11 11
18 15 14 15 15 13 11 9 8 9 13 14 14 10 11 9 9 7 5 6 8 7 7 8 8 8 8 8 9 9 10 11 11
17 16 13 14 12 11 10 8 8 9 12 13 15 12 8 9 11 9 6 6 8 8 7 7 7 7 7 8 8 9 10 10 11
19 16 15 13 11 10 10 10 9 10 11 11 13 11 7 10 12 10 8 7 9 8 7 7 8 8 8 8 8 8 9 10 10
19 18 16 16 15 14 14 12 11 11 11 10 12 13 10 10 14 12 9 8 9 9 9 8 9 9 8 7 8 9 8 9 10
17 16 16 17 17 15 14 14 13 14 14 12 11 12 12 12 17 15 12 11 10 10 10 10 10 9 9 8 8 8 8 8 9
20 18 17 16 18 16 15 13 13 16 16 14 14 14 14 15 17 16 14 13 13 12 12 12 11 11 11 10 9 8 8 7 7
22 20 16 16 14 15 15 16 15 16 16 17 16 16 16 17 17 17 16 16 16 15 14 14 14 13 12 11 10 9 9 8 8
23 22 19 17 18 18 19 19 20 20 20 22 19 19 18 19 20 19 18 19 19 18 17 16 16 15 15 14 12 11 10 9 8
26 24 21 19 23 24 23 24 22 24 22 22 22 21 23 23 23 23 22 21 22 22 21 20 20 19 17 16 15 13 12 11 9
25 26 24 22 24 27 26 25 24 24 23 22 22 22 23 24 25 26 26 25 25 25 24 23 24 23 21 18 17 15 13 11 9
28 28 28 27 27 29 29 27 26 27 23 19 20 22 23 25 27 26 28 29 28 27 27 26 25 26 25 22 19 17 15 12 10
29 29 29 30 30 30 30 30 31 30 27 16 3 2 11 27 32 30 31 31 29 30 30 30 29 28 26 26 21 19 16 13 10
30 31 33 32 32 34 34 32 32 27 29 30 13 1 5 2 11 28 35 30 29 29 30 32 32 30 28 25 24 21 16 12 10
24 24 29 32 32 31 35 36 35 32 26 23 32 22 6 4 3 7 13 24 30 27 27 27 29 30 26 22 22 21 19 9 8
20 23 25 26 26 26 27 29 32 30 29 29 22 31 24 9 4 6 4 6 15 26 26 27 27 26 27 24 21 18 17 13 11
Wind_Direction
142 152 153 155 144 129 114 105 114 125 124 113 103 109 111 113 103 100 104 90 91 89 84 87 84 80 75 95 95 86 71 104 103
145 156 155 156 153 141 122 114 122 137 135 124 114 124 119 117 111 107 108 101 95 90 88 91 89 91 102 101 92 92 85 86 92
148 149 156 157 160 153 143 135 138 141 145 136 126 133 126 122 117 110 116 108 105 103 96 97 97 93 97 99 100 101 108 109 105
154 152 156 164 164 167 161 160 149 148 156 149 136 140 145 135 125 115 125 115 113 115 111 108 105 103 101 99 97 98 99 100 100
144 151 166 169 169 180 173 173 162 160 160 160 149 143 155 150 148 147 142 138 130 125 122 120 114 112 110 109 107 109 107 106 104
158 169 181 180 176 186 180 180 180 175 174 174 168 161 164 180 180 175 164 152 144 139 136 134 128 126 121 118 117 115 113 112 114
171 172 179 186 193 196 194 198 201 197 189 183 183 191 195 211 190 187 188 174 159 156 152 150 145 141 134 130 126 122 120 118 117
187 190 192 194 199 211 215 216 216 208 200 195 196 209 213 201 201 202 206 190 174 171 169 168 164 161 154 146 141 134 131 128 123
195 199 198 202 213 221 220 223 225 213 201 200 210 215 235 236 215 210 222 215 192 187 185 184 181 178 170 161 152 146 143 136 129
200 202 208 216 221 226 223 225 225 216 211 213 219 224 244 234 221 215 226 234 227 208 197 192 192 189 185 176 171 163 158 150 141
212 212 216 223 226 230 230 225 221 220 220 229 229 232 246 234 218 219 231 236 243 229 207 205 204 200 197 189 183 176 170 163 152
213 215 224 222 223 220 223 223 224 225 232 238 234 235 235 226 225 231 240 240 242 243 219 214 212 209 206 201 195 189 182 178 170
220 223 228 229 225 226 226 227 235 238 241 239 237 239 231 235 241 245 244 238 242 241 236 221 217 217 212 210 206 204 196 191 190
223 229 236 235 230 229 231 231 238 238 239 231 235 240 240 237 243 249 251 246 240 241 240 236 227 220 219 218 215 213 211 207 204
229 233 236 235 233 232 230 233 236 242 245 240 240 241 242 241 240 244 250 249 245 239 239 237 234 230 224 222 224 219 217 214 216
234 237 238 233 235 235 232 236 238 241 243 234 239 242 244 246 244 240 241 245 245 241 237 239 239 237 233 222 223 223 220 219 222
234 238 239 238 238 242 244 242 242 244 241 220 202 274 262 251 249 244 242 244 245 243 241 238 238 237 239 233 222 220 223 227 234
237 240 242 242 241 243 246 247 243 240 240 229 213 111 229 309 251 245 242 243 243 245 244 243 240 238 239 235 227 217 211 224 243
243 244 245 247 249 248 249 250 250 245 240 237 231 236 235 193 303 250 250 246 245 243 246 246 243 239 237 233 232 222 223 235 234
257 254 254 254 254 257 256 252 251 253 245 239 239 238 240 236 242 273 267 255 244 242 245 245 241 239 242 238 229 230 209 206 211